When you browse on this site, cookies collect data to enhance your experience and personalize the content and advertising you see.
Visit our Privacy Policy to learn more. By continuing to use the site, you agree to this use of cookies and data.
  • In Belgium
  • List of Countries
  • For 7 days
  • Water Temperature
  • Satellite Maps
  • Weather Map
  • Weather Widgets
  • user-avatar
    Login

    Hourly Weather Vorotynsk

    Today, 19 June, Wednesday

    Time Temperature Precipitation Wind Pressure Humidity
    00:00 +18°C° 0.2 mm 3 mps 746 mmHg 92%
    01:00 +18°C° 0 mm 3 mps 746 mmHg 92%
    02:00 +17°C° 0 mm 3 mps 747 mmHg 92%
    03:00 +17°C° 0 mm 3 mps 747 mmHg 93%
    04:00 +17°C° 0 mm 3 mps 747 mmHg 92%
    05:00 +18°C° 0 mm 3 mps 747 mmHg 91%
    06:00 +18°C° 0 mm 2 mps 747 mmHg 90%
    07:00 +20°C° 0 mm 2 mps 748 mmHg 85%
    08:00 +21°C° 0 mm 2 mps 748 mmHg 80%
    09:00 +24°C° 0 mm 2 mps 748 mmHg 75%
    10:00 +25°C° 0.2 mm 2 mps 748 mmHg 69%
    11:00 +26°C° 0.2 mm 2 mps 748 mmHg 63%
    12:00 +27°C° 0.2 mm 3 mps 748 mmHg 57%
    13:00 +27°C° 0.2 mm 3 mps 748 mmHg 58%
    14:00 +27°C° 0.2 mm 3 mps 748 mmHg 60%
    15:00 +27°C° 0.2 mm 3 mps 748 mmHg 61%
    16:00 +26°C° 0.1 mm 3 mps 748 mmHg 64%
    17:00 +26°C° 0.1 mm 3 mps 748 mmHg 67%
    18:00 +26°C° 0.1 mm 3 mps 748 mmHg 70%
    19:00 +24°C° 0 mm 2 mps 748 mmHg 74%
    20:00 +23°C° 0 mm 2 mps 748 mmHg 79%
    21:00 +20°C° 0 mm 2 mps 748 mmHg 83%
    22:00 +19°C° 0 mm 2 mps 749 mmHg 82%
    23:00 +18°C° 0 mm 2 mps 749 mmHg 81%

    Tomorrow, 20 June, Thursday

    Time Temperature Precipitation Wind Pressure Humidity
    00:00 +18°C° 0 mm 1 mps 749 mmHg 80%
    01:00 +18°C° 0 mm 1 mps 749 mmHg 81%
    02:00 +16°C° 0 mm 1 mps 749 mmHg 81%
    03:00 +16°C° 0 mm 1 mps 749 mmHg 81%
    04:00 +16°C° 0 mm 1 mps 750 mmHg 82%
    05:00 +18°C° 0 mm 1 mps 750 mmHg 83%
    06:00 +19°C° 0 mm 1 mps 750 mmHg 84%
    07:00 +20°C° 0 mm 1 mps 750 mmHg 78%
    08:00 +22°C° 0 mm 1 mps 750 mmHg 73%
    09:00 +24°C° 0 mm 1 mps 750 mmHg 67%
    10:00 +25°C° 0 mm 2 mps 750 mmHg 63%
    11:00 +26°C° 0 mm 2 mps 750 mmHg 59%
    12:00 +27°C° 0 mm 2 mps 750 mmHg 55%
    13:00 +27°C° 0 mm 2 mps 750 mmHg 54%
    14:00 +27°C° 0 mm 2 mps 750 mmHg 53%
    15:00 +28°C° 0 mm 2 mps 750 mmHg 51%
    16:00 +28°C° 0 mm 2 mps 749 mmHg 55%
    17:00 +28°C° 0 mm 2 mps 749 mmHg 59%
    18:00 +27°C° 0 mm 1 mps 749 mmHg 62%
    19:00 +25°C° 0 mm 1 mps 749 mmHg 66%
    20:00 +24°C° 0 mm 1 mps 749 mmHg 70%
    21:00 +22°C° 0 mm 1 mps 750 mmHg 73%
    22:00 +21°C° 0 mm 1 mps 750 mmHg 75%
    23:00 +20°C° 0 mm 1 mps 750 mmHg 77%

    Day after tomorrow, 21 June, Friday

    Time Temperature Precipitation Wind Pressure Humidity
    00:00 +20°C° 0 mm 1 mps 750 mmHg 78%
    01:00 +19°C° 0 mm 1 mps 750 mmHg 80%
    02:00 +19°C° 0 mm 1 mps 750 mmHg 81%
    03:00 +18°C° 0 mm 1 mps 750 mmHg 83%
    04:00 +19°C° 0 mm 1 mps 750 mmHg 83%
    05:00 +20°C° 0 mm 1 mps 751 mmHg 84%
    06:00 +20°C° 0 mm 1 mps 751 mmHg 84%
    07:00 +22°C° 0 mm 1 mps 751 mmHg 79%
    08:00 +23°C° 0 mm 2 mps 751 mmHg 73%
    09:00 +25°C° 0 mm 2 mps 751 mmHg 68%
    10:00 +26°C° 0 mm 2 mps 751 mmHg 63%
    11:00 +27°C° 0 mm 2 mps 751 mmHg 59%
    12:00 +28°C° 0 mm 2 mps 751 mmHg 54%
    13:00 +28°C° 0 mm 2 mps 751 mmHg 55%
    14:00 +28°C° 0 mm 2 mps 751 mmHg 55%
    15:00 +28°C° 0 mm 2 mps 750 mmHg 56%
    16:00 +28°C° 0 mm 2 mps 750 mmHg 59%
    17:00 +28°C° 0 mm 2 mps 750 mmHg 61%
    18:00 +28°C° 0 mm 1 mps 750 mmHg 64%
    19:00 +26°C° 0 mm 1 mps 750 mmHg 67%
    20:00 +24°C° 0 mm 1 mps 750 mmHg 70%
    21:00 +23°C° 0 mm 1 mps 750 mmHg 74%
    22:00 +22°C° 0 mm 1 mps 750 mmHg 75%
    23:00 +21°C° 0 mm 1 mps 750 mmHg 77%

    22 June, Saturday

    Time Temperature Precipitation Wind Pressure Humidity
    00:00 +21°C° 0 mm 1 mps 750 mmHg 78%
    01:00 +20°C° 0 mm 1 mps 750 mmHg 80%
    02:00 +20°C° 0 mm 1 mps 750 mmHg 82%
    03:00 +19°C° 0 mm 1 mps 750 mmHg 84%
    04:00 +20°C° 0 mm 1 mps 750 mmHg 83%
    05:00 +20°C° 0 mm 1 mps 751 mmHg 83%
    06:00 +21°C° 0 mm 1 mps 751 mmHg 83%
    07:00 +21°C° 0 mm 2 mps 751 mmHg 78%
    08:00 +24°C° 0 mm 2 mps 751 mmHg 73%
    09:00 +26°C° 0 mm 2 mps 751 mmHg 68%
    10:00 +27°C° 0 mm 2 mps 751 mmHg 64%
    11:00 +28°C° 0 mm 3 mps 751 mmHg 59%
    12:00 +29°C° 0 mm 3 mps 751 mmHg 55%
    13:00 +29°C° 0 mm 3 mps 751 mmHg 55%
    14:00 +29°C° 0 mm 3 mps 751 mmHg 55%
    15:00 +29°C° 0 mm 3 mps 750 mmHg 55%
    16:00 +29°C° 0 mm 3 mps 750 mmHg 58%
    17:00 +29°C° 0 mm 2 mps 750 mmHg 61%
    18:00 +29°C° 0 mm 2 mps 750 mmHg 64%
    19:00 +27°C° 0 mm 2 mps 750 mmHg 67%
    20:00 +25°C° 0 mm 1 mps 750 mmHg 70%
    21:00 +23°C° 0 mm 1 mps 750 mmHg 74%
    22:00 +23°C° 0 mm 1 mps 750 mmHg 75%
    23:00 +22°C° 0 mm 1 mps 750 mmHg 77%

    23 June, Sunday

    Time Temperature Precipitation Wind Pressure Humidity
    00:00 +21°C° 0 mm 1 mps 750 mmHg 78%
    01:00 +21°C° 0 mm 1 mps 750 mmHg 79%
    02:00 +20°C° 0 mm 1 mps 750 mmHg 81%
    03:00 +20°C° 0 mm 1 mps 750 mmHg 82%
    04:00 +21°C° 0 mm 1 mps 751 mmHg 80%
    05:00 +21°C° 0 mm 1 mps 751 mmHg 80%
    06:00 +22°C° 0 mm 1 mps 751 mmHg 80%
    07:00 +24°C° 0 mm 1 mps 751 mmHg 75%
    08:00 +25°C° 0 mm 1 mps 751 mmHg 70%
    09:00 +27°C° 0 mm 1 mps 751 mmHg 64%
    10:00 +28°C° 0 mm 2 mps 751 mmHg 60%
    11:00 +28°C° 0 mm 2 mps 751 mmHg 55%
    12:00 +29°C° 0 mm 2 mps 751 mmHg 50%
    13:00 +30°C° 0 mm 2 mps 751 mmHg 51%
    14:00 +30°C° 0 mm 2 mps 751 mmHg 51%
    15:00 +30°C° 0 mm 2 mps 751 mmHg 51%
    16:00 +30°C° 0 mm 2 mps 750 mmHg 54%
    17:00 +30°C° 0 mm 2 mps 750 mmHg 57%
    18:00 +29°C° 0 mm 1 mps 750 mmHg 59%
    19:00 +28°C° 0 mm 1 mps 750 mmHg 62%
    20:00 +26°C° 0 mm 1 mps 750 mmHg 65%
    21:00 +24°C° 0 mm 1 mps 750 mmHg 68%
    22:00 +23°C° 0 mm 1 mps 750 mmHg 69%
    23:00 +23°C° 0 mm 2 mps 750 mmHg 70%

    24 June, Monday

    Time Temperature Precipitation Wind Pressure Humidity
    00:00 +21°C° 0 mm 2 mps 750 mmHg 71%
    01:00 +21°C° 0 mm 2 mps 750 mmHg 72%
    02:00 +20°C° 0 mm 2 mps 750 mmHg 73%
    03:00 +20°C° 0 mm 2 mps 750 mmHg 74%
    04:00 +20°C° 0 mm 2 mps 750 mmHg 76%
    05:00 +21°C° 0 mm 2 mps 750 mmHg 78%
    06:00 +21°C° 0 mm 2 mps 750 mmHg 79%
    07:00 +24°C° 0 mm 2 mps 750 mmHg 74%
    08:00 +25°C° 0 mm 2 mps 750 mmHg 69%
    09:00 +27°C° 0 mm 3 mps 750 mmHg 65%
    10:00 +28°C° 0 mm 3 mps 750 mmHg 61%
    11:00 +29°C° 0 mm 4 mps 750 mmHg 57%
    12:00 +30°C° 0 mm 4 mps 750 mmHg 54%
    13:00 +30°C° 0.1 mm 4 mps 749 mmHg 53%
    14:00 +31°C° 0.1 mm 3 mps 749 mmHg 53%
    15:00 +31°C° 0.1 mm 3 mps 749 mmHg 53%
    16:00 +30°C° 0.2 mm 3 mps 749 mmHg 57%
    17:00 +30°C° 0.2 mm 3 mps 749 mmHg 61%
    18:00 +29°C° 0.2 mm 2 mps 748 mmHg 66%
    19:00 +28°C° 0.2 mm 2 mps 748 mmHg 68%
    20:00 +26°C° 0.2 mm 2 mps 748 mmHg 70%
    21:00 +25°C° 0.2 mm 2 mps 748 mmHg 72%
    22:00 +24°C° 0.1 mm 2 mps 748 mmHg 74%
    23:00 +23°C° 0.1 mm 1 mps 748 mmHg 76%
    Show more